Find STARLINK-37033

NORAD ID: 70592 Constellation: starlink operational
LEOCIRCULAR

实时位置

正在加载3D地球...

关于 STARLINK-37033

正在加载描述...

即将过境

Passes for default location (London). Set your location on the main map for personalized predictions.

高度历史

Loading altitude history...

两行轨道根数

1 70592C 26099J 26122.89631944 -.00309720 00000+0 -37893-3 0 1229
2 70592 53.1634 22.5276 0005100 288.7192 218.9688 16.07401108 15
Epoch: May 2, 2026 • Age: 31 hours